DAL1047 KJFK-KATL

Flight info

Callsign DAL1047
Flight time N/A
Altitude 30000
Route RBV Q430 BYRDD J48 MOL FLASK OZZZI2
Aircraft B739/M-SDE2E3FGHIRWXY/LB1

Departure

Time 2026-05-09 17:14
Airport John F. Kennedy International Airport (KJFK)

Arrival

Time N/A
Airport Hartsfield Jackson Atlanta International Airport (KATL)
Time Latitude Longitude Altitude Speed Heading
2026-05-09 16:26 40.64126 -73.78157 25 ft 0 kts 240°
2026-05-09 17:00 40.64126 -73.78156 22 ft 1 kts 240°
2026-05-09 17:00 40.64136 -73.78133 25 ft 3 kts 240°
2026-05-09 17:00 40.64145 -73.78112 25 ft 3 kts 240°
2026-05-09 17:00 40.64158 -73.78088 27 ft 3 kts 227°
2026-05-09 17:01 40.64174 -73.78068 25 ft 3 kts 214°
2026-05-09 17:01 40.64192 -73.78052 23 ft 3 kts 229°
2026-05-09 17:01 40.64192 -73.78051 23 ft 3 kts 230°
2026-05-09 17:01 40.64174 -73.78059 25 ft 3 kts 186°
2026-05-09 17:02 40.64153 -73.78053 23 ft 3 kts 161°
2026-05-09 17:02 40.64134 -73.78040 24 ft 3 kts 151°
2026-05-09 17:02 40.64115 -73.78026 23 ft 3 kts 151°
2026-05-09 17:02 40.64096 -73.78012 22 ft 3 kts 151°
2026-05-09 17:03 40.64076 -73.77997 24 ft 3 kts 151°
2026-05-09 17:04 40.64054 -73.77981 22 ft 0 kts 150°
2026-05-09 17:05 40.64045 -73.77975 22 ft 3 kts 151°
2026-05-09 17:06 40.64027 -73.77962 23 ft 3 kts 155°
2026-05-09 17:06 40.64005 -73.77953 22 ft 4 kts 167°
2026-05-09 17:06 40.63976 -73.77947 22 ft 5 kts 171°
2026-05-09 17:06 40.63932 -73.77940 22 ft 8 kts 173°
2026-05-09 17:07 40.63872 -73.77931 22 ft 10 kts 174°
2026-05-09 17:07 40.63823 -73.77924 22 ft 11 kts 173°
2026-05-09 17:07 40.63707 -73.77904 22 ft 14 kts 173°
2026-05-09 17:07 40.63616 -73.77889 22 ft 8 kts 172°
2026-05-09 17:08 40.63564 -73.77845 24 ft 10 kts 129°
2026-05-09 17:08 40.63535 -73.77686 21 ft 11 kts 35°
2026-05-09 17:08 40.63610 -73.77627 19 ft 14 kts 31°
2026-05-09 17:09 40.63703 -73.77554 18 ft 17 kts 29°
2026-05-09 17:09 40.63817 -73.77465 17 ft 20 kts 31°
2026-05-09 17:09 40.63935 -73.77373 20 ft 20 kts 31°
2026-05-09 17:09 40.64058 -73.77277 22 ft 21 kts 31°
2026-05-09 17:10 40.64182 -73.77180 25 ft 21 kts 31°
2026-05-09 17:10 40.64319 -73.77072 22 ft 24 kts 31°
2026-05-09 17:10 40.64452 -73.76991 19 ft 18 kts
2026-05-09 17:10 40.64527 -73.76973 18 ft 13 kts 29°
2026-05-09 17:11 40.64610 -73.76908 17 ft 16 kts 30°
2026-05-09 17:11 40.64711 -73.76830 17 ft 18 kts 31°
2026-05-09 17:11 40.64819 -73.76745 19 ft 11 kts 31°
2026-05-09 17:11 40.64892 -73.76688 21 ft 14 kts 31°
2026-05-09 17:12 40.64994 -73.76609 20 ft 19 kts 30°
2026-05-09 17:12 40.65088 -73.76533 22 ft 12 kts 37°
2026-05-09 17:12 40.65092 -73.76459 23 ft 9 kts 120°
2026-05-09 17:12 40.65061 -73.76391 22 ft 9 kts 121°
2026-05-09 17:13 40.65027 -73.76348 21 ft 5 kts 197°
2026-05-09 17:13 40.65023 -73.76352 21 ft 0 kts 212°
2026-05-09 17:13 40.64994 -73.76376 22 ft 21 kts 212°
2026-05-09 17:13 40.64655 -73.76639 19 ft 90 kts 210°
2026-05-09 17:14 40.63959 -73.77185 21 ft 143 kts 211°
2026-05-09 17:14 40.62997 -73.77943 135 ft 177 kts 210°
2026-05-09 17:14 40.61928 -73.78768 667 ft 181 kts 208°
2026-05-09 17:14 40.60777 -73.79573 1105 ft 195 kts 207°
2026-05-09 17:15 40.59521 -73.80420 1579 ft 210 kts 210°
2026-05-09 17:15 40.58215 -73.81374 2235 ft 218 kts 211°
2026-05-09 17:15 40.56909 -73.82355 3135 ft 212 kts 211°
2026-05-09 17:15 40.55596 -73.83329 3733 ft 227 kts 211°
2026-05-09 17:16 40.54165 -73.84398 4255 ft 240 kts 211°
2026-05-09 17:17 40.44140 -73.92412 9640 ft 251 kts 234°
2026-05-09 17:18 40.43303 -73.94404 10299 ft 255 kts 240°
2026-05-09 17:18 40.42457 -73.96557 10492 ft 275 kts 240°
2026-05-09 17:18 40.41538 -73.98864 10661 ft 295 kts 240°
2026-05-09 17:18 40.40542 -74.01327 10835 ft 314 kts 240°
2026-05-09 17:19 40.39475 -74.03928 11094 ft 328 kts 240°
2026-05-09 17:19 40.38378 -74.06578 11629 ft 332 kts 240°
2026-05-09 17:19 40.37289 -74.09191 12365 ft 331 kts 240°
2026-05-09 17:19 40.36158 -74.11891 12975 ft 336 kts 241°
2026-05-09 17:20 40.35037 -74.14555 13638 ft 338 kts 241°
2026-05-09 17:20 40.33896 -74.17261 14238 ft 339 kts 241°
2026-05-09 17:20 40.32742 -74.19990 14717 ft 344 kts 241°
2026-05-09 17:20 40.31579 -74.22740 15216 ft 347 kts 241°
2026-05-09 17:21 40.30399 -74.25524 15756 ft 349 kts 242°
2026-05-09 17:21 40.29227 -74.28290 16224 ft 353 kts 242°
2026-05-09 17:21 40.28025 -74.31122 16712 ft 356 kts 242°
2026-05-09 17:21 40.26812 -74.33978 16952 ft 361 kts 242°
2026-05-09 17:22 40.25582 -74.36871 17079 ft 366 kts 242°
2026-05-09 17:22 40.24340 -74.39792 17661 ft 366 kts 242°
2026-05-09 17:22 40.23097 -74.42708 18264 ft 367 kts 242°
2026-05-09 17:22 40.21866 -74.45593 18649 ft 370 kts 242°
2026-05-09 17:23 40.20787 -74.48669 19082 ft 371 kts 251°
2026-05-09 17:23 40.20059 -74.51908 19554 ft 373 kts 257°
2026-05-09 17:23 40.19688 -74.55287 19964 ft 376 kts 263°
2026-05-09 17:23 40.19431 -74.58715 20367 ft 379 kts 263°
2026-05-09 17:25 40.18118 -74.76143 22440 ft 392 kts 262°
2026-05-09 17:25 40.17838 -74.79710 22830 ft 395 kts 262°
2026-05-09 17:25 40.17553 -74.83298 23222 ft 397 kts 262°
2026-05-09 17:25 40.17270 -74.86857 23568 ft 399 kts 262°
2026-05-09 17:26 40.16980 -74.90471 23883 ft 401 kts 262°
2026-05-09 17:26 40.16690 -74.94094 24250 ft 401 kts 262°
2026-05-09 17:26 40.16397 -74.97730 24609 ft 402 kts 262°
2026-05-09 17:26 40.16102 -75.01367 24944 ft 403 kts 262°
2026-05-09 17:27 40.15806 -75.05010 25283 ft 403 kts 262°
2026-05-09 17:27 40.15510 -75.08648 25778 ft 399 kts 262°
2026-05-09 17:27 40.15216 -75.12238 26349 ft 394 kts 262°
2026-05-09 17:27 40.14928 -75.15755 26829 ft 392 kts 262°
2026-05-09 17:28 40.14635 -75.19296 27230 ft 392 kts 262°
2026-05-09 17:28 40.14342 -75.22836 27672 ft 390 kts 262°
2026-05-09 17:28 40.14049 -75.26356 28158 ft 387 kts 261°
2026-05-09 17:28 40.13759 -75.29847 28655 ft 385 kts 261°
2026-05-09 17:29 40.13468 -75.33320 29137 ft 382 kts 261°
2026-05-09 17:29 40.13182 -75.36731 29637 ft 380 kts 261°
2026-05-09 17:29 40.12890 -75.40152 29961 ft 380 kts 261°
2026-05-09 17:29 40.12589 -75.43613 29965 ft 382 kts 261°
2026-05-09 17:30 40.11990 -75.50459 29966 ft 377 kts 261°
2026-05-09 17:30 40.11391 -75.57283 29972 ft 376 kts 261°
2026-05-09 17:31 40.10795 -75.64037 29968 ft 377 kts 261°
2026-05-09 17:32 40.08865 -75.80958 29978 ft 375 kts 250°
2026-05-09 17:33 40.06633 -75.87055 29958 ft 376 kts 238°
2026-05-09 17:33 40.03715 -75.92726 29937 ft 375 kts 239°
2026-05-09 17:34 40.00807 -75.98382 29944 ft 375 kts 239°
2026-05-09 17:35 39.90723 -76.18242 29959 ft 377 kts 240°
2026-05-09 17:36 39.87815 -76.23948 29943 ft 378 kts 239°
2026-05-09 17:36 39.84890 -76.29642 29945 ft 378 kts 239°
2026-05-09 17:37 39.81987 -76.35286 29941 ft 377 kts 239°
2026-05-09 17:37 39.79557 -76.40011 29962 ft 376 kts 239°
2026-05-09 17:38 39.76641 -76.45671 29939 ft 375 kts 240°
2026-05-09 17:39 39.72298 -76.54080 29952 ft 374 kts 240°
2026-05-09 17:39 39.69399 -76.59688 29900 ft 373 kts 241°
2026-05-09 17:40 39.66524 -76.65233 29943 ft 371 kts 241°
2026-05-09 17:40 39.63648 -76.70775 29947 ft 369 kts 241°
2026-05-09 17:41 39.60777 -76.76297 29941 ft 368 kts 241°
2026-05-09 17:41 39.57921 -76.81781 29950 ft 368 kts 241°
2026-05-09 17:42 39.55064 -76.87260 29986 ft 368 kts 241°
2026-05-09 17:42 39.52190 -76.92758 29950 ft 368 kts 241°
2026-05-09 17:43 39.49125 -76.98070 29944 ft 372 kts 234°
2026-05-09 17:43 39.45154 -77.02536 29943 ft 380 kts 227°
2026-05-09 17:44 39.41030 -77.06835 29952 ft 381 kts 227°
2026-05-09 17:44 39.36906 -77.11152 29942 ft 380 kts 227°
2026-05-09 17:45 39.32828 -77.15426 29951 ft 380 kts 227°
2026-05-09 17:45 39.28721 -77.19729 29936 ft 379 kts 228°
2026-05-09 17:46 39.24613 -77.24030 29970 ft 381 kts 229°
2026-05-09 17:46 39.20514 -77.28314 29945 ft 382 kts 229°
2026-05-09 17:47 39.16380 -77.32626 29944 ft 381 kts 229°
2026-05-09 17:47 39.12276 -77.36898 29933 ft 380 kts 229°
2026-05-09 17:48 39.08155 -77.41184 29935 ft 380 kts 229°
2026-05-09 17:48 39.04029 -77.45470 29931 ft 381 kts 228°
2026-05-09 17:49 38.99891 -77.49760 29921 ft 382 kts 228°
2026-05-09 17:49 38.95772 -77.54025 29917 ft 383 kts 228°
2026-05-09 17:50 38.91610 -77.58327 29916 ft 383 kts 228°
2026-05-09 17:50 38.85388 -77.64745 29910 ft 385 kts 228°
2026-05-09 17:51 38.81207 -77.69050 29923 ft 386 kts 228°
2026-05-09 17:51 38.77002 -77.73378 29906 ft 386 kts 228°
2026-05-09 17:52 38.72826 -77.77664 29908 ft 387 kts 228°
2026-05-09 17:52 38.68619 -77.81971 29909 ft 387 kts 228°
2026-05-09 17:53 38.64466 -77.86358 29915 ft 383 kts 233°
2026-05-09 17:53 38.61156 -77.91536 29938 ft 374 kts 240°
2026-05-09 17:54 38.58060 -77.96866 29921 ft 375 kts 240°
2026-05-09 17:54 38.54933 -78.02208 29925 ft 375 kts 240°
2026-05-09 17:55 38.51813 -78.07515 29913 ft 375 kts 240°
2026-05-09 17:55 38.48681 -78.12830 29905 ft 373 kts 240°
2026-05-09 17:56 38.45560 -78.18119 29905 ft 373 kts 240°
2026-05-09 17:57 38.40877 -78.26039 29903 ft 371 kts 240°
2026-05-09 17:57 38.37782 -78.31260 29901 ft 371 kts 240°
2026-05-09 17:58 38.34659 -78.36511 29916 ft 370 kts 240°
2026-05-09 17:58 38.31564 -78.41722 29861 ft 370 kts 240°
2026-05-09 17:59 38.28449 -78.46958 29903 ft 370 kts 240°
2026-05-09 17:59 38.25340 -78.52173 29922 ft 371 kts 240°
2026-05-09 18:00 38.22202 -78.57416 29926 ft 372 kts 240°
2026-05-09 18:00 38.19078 -78.62647 29924 ft 373 kts 240°
2026-05-09 18:01 38.15924 -78.67914 29928 ft 374 kts 240°
2026-05-09 18:01 38.12717 -78.73172 29904 ft 376 kts 239°
2026-05-09 18:02 38.09569 -78.78417 29892 ft 375 kts 240°